Regional Weather Roundup
Issued by NWS

Home | Current Version | Previous Version | Graphics & Text | Print | Product List | Glossary Off
Versions: 1 2 3 4 5 6 7 8 9 10 11 12 13 14 15 16 17 18 19 20 21 22 23 24 25 26 27 28 29 30 31 32 33 34 35 36 37 38 39 40 41 42 43 44 45 46 47 48 49 50

000
ASUS43 KTOP 220508
RWRKS

WEATHER ROUNDUP FOR KANSAS
NATIONAL WEATHER SERVICE GOODLAND KS
1200 AM CDT MON SEP 22 2014

NOTE:  "FAIR" INDICATES FEW OR NO CLOUDS BELOW 12,000 FEET WITH NO
SIGNIFICANT WEATHER AND/OR OBSTRUCTIONS TO VISIBILITY.

KSZ001>006-013>018-027>032-041>047-220600-
NORTHWEST KANSAS

CITY           SKY/WX    TMP DP  RH WIND       PRES   REMARKS
GOODLAND       CLOUDY    60  43  53 SE12      30.34S
HAYS           PTCLDY    59  39  47 CALM      30.30S
HILL CITY      MOCLDY    56  45  66 CALM      30.31S
RUSSELL        CLEAR     57  45  64 E7        30.29R
$$

KSZ061>065-074>080-084>089-220600-
SOUTHWEST KANSAS

CITY           SKY/WX    TMP DP  RH WIND       PRES   REMARKS
DODGE CITY     MOCLDY    62  43  49 E6        30.30F
ELKHART          N/A     58  44  60 SE9         N/A
GARDEN CITY    CLEAR     60  43  53 E7        30.31S
GREAT BEND     PTCLDY    57  46  67 CALM      30.29S
LIBERAL        PTCLDY    66  43  42 SE9       30.32S
PRATT          CLEAR     63  37  39 NE3       30.29F
$$

KSZ066>073-081>083-090>101-220600-
SOUTHEAST KANSAS

CITY           SKY/WX    TMP DP  RH WIND       PRES   REMARKS
CHANUTE        CLEAR     59  51  75 N5        30.24S
HUTCHINSON     CLEAR     58  45  62 NE5       30.28R
MEDICINE LODGE   N/A     62  42  47 E5        30.26S
NEWTON         CLEAR     61  45  55 NE5       30.30R
PARSONS        CLEAR     60  51  72 NE3       30.24S
WICHITA INTL   PTCLDY    63  46  54 NE8       30.26S
WICHITA JABRA  CLEAR     58  46  64 N3        30.27R
WICHITA MCCONL CLEAR     62  44  52 NE6       30.26S
WINFIELD       CLEAR     61  48  62 NE3       30.26R
$$

KSZ007>012-019>026-033>040-048>060-102>105-220600-
NORTHEAST KANSAS

CITY           SKY/WX    TMP DP  RH WIND       PRES   REMARKS
CONCORDIA      CLEAR     54  47  77 CALM      30.29R
EMPORIA        CLEAR     59  49  69 N5        30.27R
LAWRENCE       CLEAR     51  48  89 NW3       30.26R
MANHATTAN      CLEAR     53  48  83 CALM      30.27S
MARYSVILLE     CLEAR     50  46  87 CALM      30.28S
OLATHE IND     CLEAR     54  49  83 N8        30.25S
OLATHE EXE     CLEAR     60  49  66 N3        30.24S
SALINA         CLEAR     63  46  54 NE5       30.28S
TOPEKA BILLARD CLEAR     57  51  80 CALM      30.26S
TOPEKA FORBES  CLEAR     56  49  77 N3        30.26R
$$



USA.gov is the U.S. government's official web portal to all federal, state and local government web resources and services.